Voltar ao catálogo

KUIPER-00079

AtivoComunicaçõesLEO
NORAD 64826·PAYLOAD·🇺🇸 United States

Lançado Jul 16, 2025 de Cape Canaveral Space Force Station

Loading…

Próximas Passagens (próximas 24 horas)

TLE

AtualizadoSource: CelesTrak SupGP

Época: Sep 14, 2026, 23:20 UTC

1 64826C 25151L   26257.97262732 -.00020201  00000+0 -26447-2 0  2578
2 64826  51.8982 183.5408 0001094  73.1074 254.8121 14.79944737    15

Acompanhe KUIPER-00079 em tempo real com AllMySat

Download on the App Store